N4NW Stafford County VA US current weather conditions

sailwx.info

Wind from 265

Air temperature 5.0° C
Dewpoint -1.7° C

Last reported at 2020-Jan-29 01:01 UTC.
Time now 2020-Jan-29 01:52 UTC

Location: N 38°28' W 077°28'.
View on Google Maps.

See reports from other nearby stations

  
Tides and Currents Weather Stations Pressure Air Temp Water Temp Dewpoint Dewpoint Depression Visibility Wind Speed Wind Dir Waves Ship Positions
date/time (UTC)wind fromknots sea level pressurealtimeterstation pressurevisibilityair tempwater tempwave heightnotes
2020-Jan-29 01:01 265 5.0
2020-Jan-29 00:45 304 0 gusting 6 5.0
2020-Jan-29 00:32 360 5.0
2020-Jan-29 00:15 317 0 gusting 11 5.0
2020-Jan-29 00:00 005 5.6
2020-Jan-28 23:47 346 5.0
2020-Jan-28 23:30 303 5.6
2020-Jan-28 23:16 313 5.6
2020-Jan-28 23:02 303 5.6
2020-Jan-28 22:45 290 6.1
2020-Jan-28 22:32 287 1 gusting 9 6.1
2020-Jan-28 22:01 288 4 gusting 12 6.7
2020-Jan-28 21:33 284 0 gusting 9 7.2
2020-Jan-28 21:15 294 0 gusting 8 7.8
2020-Jan-28 21:00 307 8.3
2020-Jan-28 20:47 258 7.8
2020-Jan-28 20:32 292 7.2
2020-Jan-28 20:02 349 1 gusting 7 7.2
2020-Jan-28 19:45 294 7.2
2020-Jan-28 19:31 279 7.2
2020-Jan-28 19:15 338 0 gusting 11 7.2
2020-Jan-28 19:00 306 7.2
2020-Jan-28 18:49 309 6.7
2020-Jan-28 18:32 329 1 gusting 16 6.7
2020-Jan-28 18:15 302 6.7
2020-Jan-28 18:02 005 3 gusting 13 7.2
2020-Jan-28 17:45 326 2 gusting 12 7.2
2020-Jan-28 17:30 343 7.8
2020-Jan-28 17:16 304 7.8
2020-Jan-28 17:01 326 2 gusting 13 7.8
2020-Jan-28 16:45 316 6.7
2020-Jan-28 16:31 290 1 gusting 13 6.7
2020-Jan-28 16:15 317 3 gusting 16 6.7
2020-Jan-28 16:01 301 0 gusting 13 6.7
2020-Jan-28 15:46 332 0 gusting 11 6.7
2020-Jan-28 15:30 304 6.7
2020-Jan-28 15:16 305 6.1
2020-Jan-28 15:01 269 4 gusting 11 5.6
2020-Jan-28 14:31 267 1 gusting 8 5.0
2020-Jan-28 14:15 287 0 gusting 9 4.4
2020-Jan-28 14:02 335 4.4
2020-Jan-28 13:45 277 0 gusting 4 3.9
2020-Jan-28 13:31 323 3.9
2020-Jan-28 13:15 299 3.3
2020-Jan-28 13:01 336 3.3
2020-Jan-28 12:32 319 3.3
2020-Jan-28 12:15 304 1 gusting 9 3.3
2020-Jan-28 12:02 010 3.3
2020-Jan-28 11:46 317 0 gusting 6 3.3
2020-Jan-28 11:30 279 3.3
2020-Jan-28 11:16 329 3.3
2020-Jan-28 11:00 291 2.8
2020-Jan-28 10:31 302 2.8
2020-Jan-28 10:15 303 0 gusting 4 2.8
2020-Jan-28 10:02 303 2.8
2020-Jan-28 09:45 298 2.8
2020-Jan-28 09:33 302 2.8
2020-Jan-28 09:15 311 3.3
2020-Jan-28 09:00 304 3.3
2020-Jan-28 08:46 296 3.3
2020-Jan-28 08:31 319 3.3
2020-Jan-28 08:02 301 3.3
2020-Jan-28 07:45 290 0 gusting 6 3.3
2020-Jan-28 07:31 310 3.3
2020-Jan-28 07:16 350 3.9
2020-Jan-28 06:45 330 0 gusting 8 3.9
2020-Jan-28 06:33 052 3.9
2020-Jan-28 06:15 285 0 gusting 9 3.9
2020-Jan-28 06:03 343 3.9
2020-Jan-28 05:46 321 3.9
2020-Jan-28 05:31 306 3.9
2020-Jan-28 05:15 321 3.9
2020-Jan-28 05:00 327 3.9
2020-Jan-28 04:47 322 3.9
2020-Jan-28 04:32 325 4.4
2020-Jan-28 04:15 310 4.4
2020-Jan-28 04:02 342 4.4
2020-Jan-28 03:45 331 4.4
2020-Jan-28 03:31 316 2 gusting 10 5.0
2020-Jan-28 03:15 317 5.0
2020-Jan-28 03:00 324 4.4
2020-Jan-28 02:45 312 4 gusting 14 4.4
2020-Jan-28 02:32 333 4.4
2020-Jan-28 02:15 028 0 gusting 6 5.0
2020-Jan-28 02:01 322 5.0
2020-Jan-28 01:45 321 0 gusting 9 5.0
2020-Jan-28 01:31 355 5.6
2020-Jan-28 01:17 292 5.6
2020-Jan-28 01:01 005 5.6
2020-Jan-28 00:45 355 5.6
2020-Jan-28 00:31 029 5.6
2020-Jan-28 00:15 295 5.6
2020-Jan-28 00:00 042 6.1
2020-Jan-27 23:46 342 6.1
2020-Jan-27 23:30 010 6.7
2020-Jan-27 23:00 014 6.7
2020-Jan-27 22:46 015 6.7
2020-Jan-27 22:31 018 7.2
2020-Jan-27 22:19 355 7.2
2020-Jan-27 22:01 056 7.8
2020-Jan-27 21:46 034 8.3
2020-Jan-27 21:30 325 8.9
2020-Jan-27 21:16 360 8.9
2020-Jan-27 21:01 279 9.4
2020-Jan-27 20:45 279 8.9
2020-Jan-27 20:31 259 8.9
2020-Jan-27 20:15 263 9.4
2020-Jan-27 20:00 271 10.0
2020-Jan-27 19:45 281 9.4
2020-Jan-27 19:30 295 10.0
2020-Jan-27 19:16 306 10.0
2020-Jan-27 19:00 257 10.0
2020-Jan-27 18:45 273 10.0
2020-Jan-27 18:31 232 10.6
2020-Jan-27 18:15 282 10.0
2020-Jan-27 18:02 247 10.0
2020-Jan-27 17:30 233 9.4
2020-Jan-27 17:15 193 0 gusting 8 9.4
2020-Jan-27 17:00 198 4 gusting 12 8.9
2020-Jan-27 16:46 264 0 gusting 8 8.3
2020-Jan-27 16:30 223 7 gusting 9 8.3
2020-Jan-27 16:15 263 0 gusting 9 7.2
2020-Jan-27 16:02 265 1 gusting 11 6.7
2020-Jan-27 15:45 257 6.1
2020-Jan-27 15:31 238 2 gusting 6 5.0
2020-Jan-27 15:16 244 0 gusting 4 5.0
2020-Jan-27 15:00 248 4.4
2020-Jan-27 14:31 248 3.3
2020-Jan-27 14:15 248 2.8
2020-Jan-27 14:02 248 1.7
2020-Jan-27 13:31 248 0.6
2020-Jan-27 13:15 247 -0.6
2020-Jan-27 13:00 247 -0.6
2020-Jan-27 12:46 247 -0.6
2020-Jan-27 12:30 246 -0.0
2020-Jan-27 12:18 246 -0.0
2020-Jan-27 12:00 246 -0.0
2020-Jan-27 11:32 244 -0.6
2020-Jan-27 11:16 247 -0.6
2020-Jan-27 11:02 250 2 gusting 6 -1.1
2020-Jan-27 10:46 255 -1.1
2020-Jan-27 10:30 255 -0.6
2020-Jan-27 10:16 256 -1.1
2020-Jan-27 10:00 257 -0.6
2020-Jan-27 09:47 257 -0.6
2020-Jan-27 09:30 259 -0.6
2020-Jan-27 09:18 265 -1.1
2020-Jan-27 09:02 265 -1.1
2020-Jan-27 08:31 265 -0.6
2020-Jan-27 08:15 267 -0.6
2020-Jan-27 08:01 267 -0.6
2020-Jan-27 07:46 267 -0.0
2020-Jan-27 07:30 267 0.6
2020-Jan-27 07:17 264 -0.0
2020-Jan-27 07:00 271 -0.0
2020-Jan-27 06:31 273 0 gusting 3 -0.6
2020-Jan-27 06:15 275 -0.6
2020-Jan-27 06:02 279 -0.6
2020-Jan-27 05:45 280 -0.6
2020-Jan-27 05:31 280 -0.6
2020-Jan-27 05:30 280 -0.6
2020-Jan-27 05:16 280 -0.6
2020-Jan-27 05:01 280 -0.0
2020-Jan-27 04:45 280 -0.0
2020-Jan-27 04:30 281 0.6
2020-Jan-27 04:17 283 0.6
2020-Jan-27 04:03 283 1.1
2020-Jan-27 03:45 283 1.1
2020-Jan-27 03:30 283 2.2
2020-Jan-27 03:16 283 2.2
2020-Jan-27 03:00 283 3.3
2020-Jan-27 02:31 283 4.4
2020-Jan-27 02:16 283 4.4
2020-Jan-27 02:00 283 5.0
2020-Jan-27 01:47 286 4.4
2020-Jan-27 01:30 291 5.0
2020-Jan-27 01:17 291 0 gusting 3 4.4
2020-Jan-27 01:01 291 4.4